COSMOS 249 DEB, 3911

Orbit data source: Space-Track

COSMOS 249 DEB, 3911 is space debris in LEO originally from a launch on Sun, 20 Oct 1968 UTC launched from the Tyuratam Missile And Space Complex (TTMTR). Debris objects in space refer to the collection of defunct objects orbiting the Earth. Examples of debris include non-operational satellites, rocket bodies, and fragments generated from explosions, collisions, or faulty payload assembly.

Loading next visibility...
Identifier
3911, 1968-091BP
Orbit
LEO
Country
Flag of CISCIS
Related business
Manufacturer
Unknown
Mission
Spacecraft
Bus & Motor
Unknown
Mass
Unknown
Launch date (UTC)
1968-10-20 (58 years ago)
Launch vehicle
Unknown
Launch site
Tyuratam Missile And Space Complex (TTMTR)
Object type
Payload
Rocket body
Debris
Shape & HBR
Unknown shape, 0.1 m
Radar Cross Section
Small (<0.1 m²)

Expand to show TLE details & history
Last TLE update: 14 hours ago

TLE from 14 hours ago
0 COSMOS 249 DEB
1 03911U 68091BP  26126.34488748  .00002157  00000-0  56652-3 0  9993
2 03911  62.9180 207.8614 0792334  78.4363 290.4449 13.42567030661702
Epoch: 2026-05-06T08:16Z
TLE epoch observation values (Epoch: 2026-05-06T08:16:38.278Z)
Latitude
-0.00006°
Longitude
-140.50484°
Altitude
937.305 km
Speed
7.464 km/s
True Right ascension
13h 51m 26s
True Declination
0° 00' 00"
Sunlit
Object was in full shadow at epoch
Visualization orbit readout
Latitude
Unknown
Longitude
Unknown
Altitude
Unknown
Speed
Unknown
Apparent Right ascension
Unknown
Apparent Declination
Unknown
Sunlit
N/A
Visualization observer readout
Local Sidereal Time
06:03:47
Azimuth
Unknown
Elevation
Unknown
Doppler factor
Unknown
Orbital elements
Apogee altitude
1,691.021 km
Perigee altitude
506.204 km
Semi-major axis
7,476.749 km
Eccentricity
0.07923
Inclination
62.918°
RAAN
207.8614°
Arg. of periapsis
78.4363°
True anomaly
281.66753°
Mean anomaly
290.4449°
Eccentric anomaly
286.08284°
Mean motion
3.35717 °/min
Orbital period
107.23 mins
BSTAR
0.00056652
Loading maneuver chart data...
Computing Atmospheric mass density...
Loading historical data...
Loading historical data...
Loading historical data...
Loading historical data...
Loading historical data...
Loading historical data...
Loading historical data...

Documentation

Showing up to 5 results
|